Weather History for KMKT - May, 2014

Change the Weather History Date:

Sunday, May 4, 2014

  Actual Average Record
Temperature  
Mean Temperature 46 °F -  
Max Temperature 55 °F 63 °F 87 °F (2000)
Min Temperature 37 °F 43 °F 33 °F (2005)
Degree Days  
Heating Degree Days 19    
Moisture  
Dew Point 29 °F    
Average Humidity 51    
Maximum Humidity 70    
Minimum Humidity 33    
Precipitation  
Precipitation 0.00 in - - ()
Sea Level Pressure  
Sea Level Pressure 30.04 in    
Wind  
Wind Speed 10 mph (ENE)    
Max Wind Speed 16 mph    
Max Gust Speed 20 mph    
Visibility 10 miles    
Events      
Averages and records for this station are not official NWS values.
T = Trace of Precipitation, MM = Missing Value Source: NWS Daily Summary

Daily Weather History Graph

Daily Weather History Graph

Search for Another Location

Airport or City:

Trip Planner

Search our weather history database for the weather conditions in past years. The results will help you decide how hot, cold, wet, or windy it might be!

Date:

Astronomy

May. 04, 2014 Rise Set
Actual Time 6:02 AM CDT 8:23 PM CDT
Civil Twilight 5:30 AM CDT 8:55 PM CDT
Nautical Twilight 4:50 AM CDT 9:35 PM CDT
Astronomical Twilight 4:05 AM CDT 10:20 PM CDT
Moon 10:26 AM CDT (5/4) 12:29 AM CDT (5/4)
Length of Visible Light 15h 25m
Length of Day
14h 20m
Waxing Crescent, 28% of the Moon is Illuminated
May 4
Waxing Crescent
May 6
First Quarter
May 14
Full
May 21
Last Quarter
May 28
New

Hourly Weather History & Observations

Time (CDT) Temp. Windchill Dew Point Humidity Pressure Visibility Wind Dir Wind Speed Gust Speed Precip Events Conditions
12:15 AM 46.4 °F 41.1 °F 33.8 °F 62% 29.99 in 10.0 mi NNW 11.5 mph - N/A   Clear
12:35 AM 46.4 °F 40.7 °F 33.8 °F 62% 30.00 in 10.0 mi NNW 12.7 mph - N/A   Clear
12:55 AM 46.4 °F 39.8 °F 32.0 °F 57% 30.00 in 10.0 mi NNW 16.1 mph - N/A   Clear
1:15 AM 44.6 °F 37.4 °F 30.2 °F 57% 30.01 in 10.0 mi NNW 16.1 mph - N/A   Clear
1:35 AM 42.8 °F 35.8 °F 32.0 °F 66% 30.02 in 10.0 mi NNW 13.8 mph - N/A   Clear
1:55 AM 42.8 °F 36.6 °F 30.2 °F 61% 30.03 in 10.0 mi NNW 11.5 mph - N/A   Clear
2:15 AM 42.8 °F 36.6 °F 30.2 °F 61% 30.04 in 10.0 mi NNW 11.5 mph - N/A   Clear
2:35 AM 41.0 °F 35.2 °F 30.2 °F 65% 30.04 in 10.0 mi NNW 9.2 mph - N/A   Clear
2:55 AM 41.0 °F 34.3 °F 28.4 °F 61% 30.04 in 10.0 mi NNW 11.5 mph - N/A   Clear
3:15 AM 39.2 °F 32.5 °F 28.4 °F 65% 30.04 in 10.0 mi NNW 10.4 mph - N/A   Clear
3:35 AM 39.2 °F 33.0 °F 28.4 °F 65% 30.05 in 10.0 mi NNW 9.2 mph - N/A   Clear
3:55 AM 39.2 °F 33.6 °F 28.4 °F 65% 30.05 in 10.0 mi NNW 8.1 mph - N/A   Clear
4:15 AM 39.2 °F 33.0 °F 28.4 °F 65% 30.05 in 10.0 mi North 9.2 mph - N/A   Clear
4:35 AM 39.2 °F 32.5 °F 28.4 °F 65% 30.05 in 10.0 mi North 10.4 mph - N/A   Clear
4:55 AM 39.2 °F 33.0 °F 28.4 °F 65% 30.06 in 10.0 mi North 9.2 mph - N/A   Partly Cloudy
5:15 AM 39.2 °F 32.5 °F 26.6 °F 61% 30.06 in 10.0 mi NNE 10.4 mph - N/A   Clear
5:35 AM 37.4 °F 30.8 °F 26.6 °F 65% 30.07 in 10.0 mi NNE 9.2 mph - N/A   Scattered Clouds
5:55 AM 37.4 °F 30.3 °F 28.4 °F 70% 30.08 in 10.0 mi NNE 10.4 mph - N/A   Mostly Cloudy
6:15 AM 37.4 °F 30.8 °F 28.4 °F 70% 30.08 in 10.0 mi NNE 9.2 mph - N/A   Scattered Clouds
6:35 AM 37.4 °F 30.8 °F 28.4 °F 70% 30.10 in 10.0 mi NNE 9.2 mph - N/A   Partly Cloudy
6:55 AM 37.4 °F 31.4 °F 28.4 °F 70% 30.09 in 10.0 mi NNE 8.1 mph - N/A   Clear
7:15 AM 39.2 °F 33.6 °F 28.4 °F 65% 30.10 in 10.0 mi NNE 8.1 mph - N/A   Clear
7:35 AM 37.4 °F 32.1 °F 28.4 °F 70% 30.13 in 10.0 mi North 6.9 mph - N/A   Scattered Clouds
7:55 AM 39.2 °F 34.2 °F 28.4 °F 65% 30.13 in 10.0 mi NNE 6.9 mph - N/A   Scattered Clouds
8:15 AM 39.2 °F 35.0 °F 28.4 °F 65% 30.14 in 10.0 mi NNE 5.8 mph - N/A   Scattered Clouds
8:35 AM 39.2 °F 35.0 °F 28.4 °F 65% 30.14 in 10.0 mi NE 5.8 mph - N/A   Clear
8:55 AM 41.0 °F 37.1 °F 28.4 °F 61% 30.14 in 10.0 mi NE 5.8 mph - N/A   Clear
9:15 AM 41.0 °F 35.2 °F 28.4 °F 61% 30.11 in 10.0 mi ENE 9.2 mph - N/A   Clear
9:35 AM 42.8 °F 36.6 °F 26.6 °F 53% 30.10 in 10.0 mi NE 11.5 mph - N/A   Clear
9:55 AM 42.8 °F 37.0 °F 26.6 °F 53% 30.10 in 10.0 mi NE 10.4 mph - N/A   Clear
10:15 AM 42.8 °F 35.8 °F 26.6 °F 53% 30.09 in 10.0 mi NE 13.8 mph - N/A   Clear
10:35 AM 44.6 °F 38.8 °F 26.6 °F 49% 30.09 in 10.0 mi ENE 11.5 mph - N/A   Clear
10:55 AM 44.6 °F 39.2 °F 26.6 °F 49% 30.10 in 10.0 mi NE 10.4 mph - N/A   Clear
11:15 AM 46.4 °F 41.5 °F 26.6 °F 46% 30.10 in 10.0 mi ENE 10.4 mph - N/A   Clear
11:35 AM 46.4 °F 42.4 °F 26.6 °F 46% 30.10 in 10.0 mi ENE 8.1 mph - N/A   Clear
11:55 AM 46.4 °F 42.4 °F 24.8 °F 43% 30.09 in 10.0 mi NE 8.1 mph - N/A   Mostly Cloudy
12:15 PM 48.2 °F - 28.4 °F 46% 30.09 in 10.0 mi ENE 5.8 mph - N/A   Overcast
12:35 PM 46.4 °F 42.4 °F 26.6 °F 46% 30.09 in 10.0 mi ENE 8.1 mph - N/A   Overcast
12:55 PM 48.2 °F - 26.6 °F 43% 30.08 in 10.0 mi NE 6.9 mph - N/A   Overcast
1:15 PM 48.2 °F - 24.8 °F 40% 30.08 in 10.0 mi ENE 9.2 mph - N/A   Overcast
1:35 PM 50.0 °F - 24.8 °F 37% 30.08 in 10.0 mi East 6.9 mph 16.1 mph N/A   Mostly Cloudy
1:55 PM 51.8 °F - 26.6 °F 38% 30.06 in 10.0 mi East 9.2 mph - N/A   Mostly Cloudy
2:15 PM 50.0 °F - 26.6 °F 40% 30.06 in 10.0 mi East 11.5 mph 16.1 mph N/A   Mostly Cloudy
2:35 PM 51.8 °F - 24.8 °F 35% 30.05 in 10.0 mi SE 9.2 mph 17.3 mph N/A   Scattered Clouds
2:55 PM 53.6 °F - 26.6 °F 35% 30.05 in 10.0 mi SE 9.2 mph - N/A   Scattered Clouds
3:15 PM 51.8 °F - 24.8 °F 35% 30.04 in 10.0 mi SE 8.1 mph 17.3 mph N/A   Mostly Cloudy
3:35 PM 53.6 °F - 26.6 °F 35% 30.03 in 10.0 mi East 3.5 mph - N/A   Scattered Clouds
3:55 PM 53.6 °F - 26.6 °F 35% 30.02 in 10.0 mi ESE 10.4 mph 19.6 mph N/A   Clear
4:15 PM 55.4 °F - 26.6 °F 33% 30.02 in 10.0 mi ESE 8.1 mph - N/A   Clear
4:35 PM 55.4 °F - 26.6 °F 33% 30.01 in 10.0 mi ESE 9.2 mph - N/A   Clear
4:55 PM 55.4 °F - 26.6 °F 33% 30.00 in 10.0 mi SE 10.4 mph - N/A   Scattered Clouds
5:15 PM 55.4 °F - 26.6 °F 33% 30.00 in 10.0 mi East 9.2 mph - N/A   Partly Cloudy
5:35 PM 55.4 °F - 28.4 °F 36% 29.99 in 10.0 mi ESE 12.7 mph 16.1 mph N/A   Mostly Cloudy
5:55 PM 55.4 °F - 28.4 °F 36% 29.99 in 10.0 mi ESE 10.4 mph - N/A   Overcast
6:15 PM 55.4 °F - 28.4 °F 36% 29.98 in 10.0 mi SE 10.4 mph - N/A   Mostly Cloudy
6:35 PM 55.4 °F - 28.4 °F 36% 29.98 in 10.0 mi SE 13.8 mph - N/A   Overcast
6:55 PM 55.4 °F - 28.4 °F 36% 29.98 in 10.0 mi ESE 10.4 mph - N/A   Overcast
7:15 PM 55.4 °F - 28.4 °F 36% 29.97 in 10.0 mi ESE 11.5 mph - N/A   Overcast
7:35 PM 53.6 °F - 30.2 °F 41% 29.98 in 10.0 mi ESE 10.4 mph - N/A   Overcast
7:55 PM 53.6 °F - 30.2 °F 41% 29.98 in 10.0 mi SE 6.9 mph - N/A   Mostly Cloudy
8:15 PM 53.6 °F - 30.2 °F 41% 29.98 in 10.0 mi East 5.8 mph - N/A   Scattered Clouds
8:35 PM 53.6 °F - 30.2 °F 41% 29.98 in 10.0 mi East 3.5 mph - N/A   Scattered Clouds
8:55 PM 53.6 °F - 32.0 °F 44% 29.99 in 10.0 mi Calm Calm - N/A   Overcast
9:15 PM 51.8 °F - 32.0 °F 47% 29.98 in 10.0 mi ESE 4.6 mph - N/A   Overcast
9:35 PM 51.8 °F - 32.0 °F 47% 29.97 in 10.0 mi ESE 6.9 mph - N/A   Overcast
9:55 PM 51.8 °F - 30.2 °F 44% 29.97 in 10.0 mi ESE 6.9 mph - N/A   Scattered Clouds
10:15 PM 51.8 °F - 32.0 °F 47% 29.98 in 10.0 mi ENE 4.6 mph - N/A   Scattered Clouds
10:35 PM 51.8 °F - 33.8 °F 50% 29.99 in 10.0 mi NNE 6.9 mph - N/A   Overcast
10:55 PM 50.0 °F - 33.8 °F 54% 29.98 in 10.0 mi NE 5.8 mph - N/A   Overcast
11:15 PM 51.8 °F - 33.8 °F 50% 29.97 in 10.0 mi ENE 6.9 mph - N/A   Overcast
11:35 PM 51.8 °F - 35.6 °F 54% 29.97 in 10.0 mi ENE 5.8 mph - N/A   Overcast
11:55 PM 51.8 °F - 33.8 °F 50% 29.97 in 10.0 mi East 5.8 mph - N/A   Overcast